Time,TemperatureF,DewpointF,PressureIn,WindDirection,WindDirectionDegrees,WindSpeedMPH,WindSpeedGustMPH,Humidity,HourlyPrecipIn,Conditions,Clouds,dailyrainin,SoftwareType,DateUTC
2013-01-06 00:00:00,20.1,14.7,30.25,East,96,0.0,3.0,79,0.00,,,0.00,meteohub,2013-01-06 05:00:00,
2013-01-06 00:01:00,20.1,14.9,30.25,East,96,0.0,3.0,80,0.00,,,0.00,meteohub,2013-01-06 05:01:00,
2013-01-06 00:02:00,20.1,14.9,30.25,East,96,1.0,3.0,80,0.00,,,0.00,meteohub,2013-01-06 05:02:00,
2013-01-06 00:07:00,20.3,15.4,30.25,East,96,0.0,2.0,81,0.00,,,0.00,meteohub,2013-01-06 05:07:00,
2013-01-06 00:08:00,20.7,16.3,30.25,North,355,0.0,2.0,83,0.00,,,0.00,meteohub,2013-01-06 05:08:00,
2013-01-06 00:13:00,21.0,16.7,30.26,North,355,0.0,1.0,83,0.00,,,0.00,meteohub,2013-01-06 05:13:00,
2013-01-06 00:18:00,21.0,16.9,30.27,North,355,0.0,1.0,84,0.00,,,0.00,meteohub,2013-01-06 05:18:00,
2013-01-06 00:23:00,21.2,17.1,30.27,North,355,0.0,0.0,84,0.00,,,0.00,meteohub,2013-01-06 05:23:00,
2013-01-06 00:28:00,21.2,17.4,30.26,North,355,0.0,1.0,85,0.00,,,0.00,meteohub,2013-01-06 05:28:00,
2013-01-06 00:33:00,21.4,17.2,30.27,North,355,0.0,1.0,84,0.00,,,0.00,meteohub,2013-01-06 05:33:00,
2013-01-06 00:38:00,21.6,17.4,30.27,North,355,0.0,1.0,84,0.00,,,0.00,meteohub,2013-01-06 05:38:00,
2013-01-06 00:43:00,21.6,17.4,30.27,North,355,0.0,1.0,84,0.00,,,0.00,meteohub,2013-01-06 05:43:00,
2013-01-06 00:48:00,21.7,18.0,30.26,North,355,0.0,1.0,85,0.00,,,0.00,meteohub,2013-01-06 05:48:00,
2013-01-06 00:53:00,21.9,17.8,30.26,North,355,0.0,1.0,84,0.00,,,0.00,meteohub,2013-01-06 05:53:00,
2013-01-06 00:58:00,21.7,17.6,30.26,North,355,0.0,1.0,84,0.00,,,0.00,meteohub,2013-01-06 05:58:00,
2013-01-06 01:03:00,21.6,17.2,30.26,North,355,0.0,1.0,83,0.00,,,0.00,meteohub,2013-01-06 06:03:00,
2013-01-06 01:08:00,21.4,17.1,30.25,North,355,0.0,1.0,83,0.00,,,0.00,meteohub,2013-01-06 06:08:00,
2013-01-06 01:13:00,21.2,16.9,30.25,North,355,0.0,1.0,83,0.00,,,0.00,meteohub,2013-01-06 06:13:00,
2013-01-06 01:18:00,21.0,16.7,30.24,North,355,0.0,0.0,83,0.00,,,0.00,meteohub,2013-01-06 06:18:00,
2013-01-06 01:23:00,21.2,16.9,30.25,North,355,0.0,0.0,83,0.00,,,0.00,meteohub,2013-01-06 06:23:00,
2013-01-06 01:28:00,21.4,17.1,30.23,North,355,0.0,0.0,83,0.00,,,0.00,meteohub,2013-01-06 06:28:00,
2013-01-06 01:33:00,21.6,17.2,30.23,North,355,0.0,1.0,83,0.00,,,0.00,meteohub,2013-01-06 06:33:00,
2013-01-06 01:38:00,21.6,17.2,30.24,North,355,0.0,1.0,83,0.00,,,0.00,meteohub,2013-01-06 06:38:00,
2013-01-06 01:43:00,21.6,17.4,30.24,North,355,0.0,1.0,84,0.00,,,0.00,meteohub,2013-01-06 06:43:00,
2013-01-06 01:48:00,21.6,17.4,30.24,North,355,0.0,0.0,84,0.00,,,0.00,meteohub,2013-01-06 06:48:00,
2013-01-06 01:53:00,21.7,17.6,30.23,North,355,0.0,1.0,84,0.00,,,0.00,meteohub,2013-01-06 06:53:00,
2013-01-06 01:58:00,21.9,17.6,30.23,North,355,0.0,1.0,83,0.00,,,0.00,meteohub,2013-01-06 06:58:00,
2013-01-06 02:04:00,21.9,17.6,30.22,North,355,1.0,1.0,83,0.00,,,0.00,meteohub,2013-01-06 07:04:00,
2013-01-06 02:09:00,22.5,17.8,30.22,North,355,1.0,1.0,82,0.00,,,0.00,meteohub,2013-01-06 07:09:00,
2013-01-06 02:14:00,22.8,18.0,30.22,NNW,338,0.0,1.0,81,0.00,,,0.00,meteohub,2013-01-06 07:14:00,
2013-01-06 02:19:00,23.0,17.8,30.22,NNW,338,0.0,3.0,80,0.00,,,0.00,meteohub,2013-01-06 07:19:00,
2013-01-06 02:24:00,23.2,18.0,30.22,SSW,209,3.0,3.0,80,0.00,,,0.00,meteohub,2013-01-06 07:24:00,
2013-01-06 02:29:00,23.7,18.1,30.23,SSW,209,0.0,5.0,79,0.00,,,0.00,meteohub,2013-01-06 07:29:00,
2013-01-06 02:34:00,23.9,18.3,30.22,South,191,2.0,5.0,79,0.00,,,0.00,meteohub,2013-01-06 07:34:00,
2013-01-06 02:39:00,24.1,18.5,30.22,South,172,3.0,5.0,79,0.00,,,0.00,meteohub,2013-01-06 07:39:00,
2013-01-06 02:44:00,24.1,18.5,30.22,South,185,0.0,4.0,79,0.00,,,0.00,meteohub,2013-01-06 07:44:00,
2013-01-06 02:49:00,23.7,18.1,30.21,South,185,0.0,4.0,79,0.00,,,0.00,meteohub,2013-01-06 07:49:00,
2013-01-06 02:54:00,24.1,18.5,30.20,SW,217,1.0,4.0,79,0.00,,,0.00,meteohub,2013-01-06 07:54:00,
2013-01-06 02:59:00,24.1,18.5,30.20,SW,217,0.0,5.0,79,0.00,,,0.00,meteohub,2013-01-06 07:59:00,
2013-01-06 03:04:00,24.1,18.1,30.20,South,175,3.0,5.0,78,0.00,,,0.00,meteohub,2013-01-06 08:04:00,
2013-01-06 03:09:00,24.3,18.3,30.19,SE,142,2.0,6.0,78,0.00,,,0.00,meteohub,2013-01-06 08:09:00,
2013-01-06 03:14:00,24.3,18.7,30.19,SE,143,1.0,6.0,79,0.00,,,0.00,meteohub,2013-01-06 08:14:00,
2013-01-06 03:19:00,24.1,18.5,30.18,SSW,207,0.0,6.0,79,0.00,,,0.00,meteohub,2013-01-06 08:19:00,
2013-01-06 03:24:00,24.1,18.5,30.18,South,186,3.0,5.0,79,0.00,,,0.00,meteohub,2013-01-06 08:24:00,
2013-01-06 03:29:00,24.1,18.5,30.19,South,186,0.0,5.0,79,0.00,,,0.00,meteohub,2013-01-06 08:29:00,
2013-01-06 03:34:00,24.1,18.5,30.17,South,186,0.0,6.0,79,0.00,,,0.00,meteohub,2013-01-06 08:34:00,
2013-01-06 03:39:00,24.3,18.7,30.17,ESE,119,0.0,6.0,79,0.00,,,0.00,meteohub,2013-01-06 08:39:00,
2013-01-06 03:44:00,24.4,18.9,30.17,SW,215,0.0,4.0,79,0.00,,,0.00,meteohub,2013-01-06 08:44:00,
2013-01-06 03:49:00,24.6,19.0,30.17,SW,215,3.0,4.0,79,0.00,,,0.00,meteohub,2013-01-06 08:49:00,
2013-01-06 03:54:00,24.8,19.2,30.16,SSE,153,3.0,4.0,79,0.00,,,0.00,meteohub,2013-01-06 08:54:00,
2013-01-06 03:59:00,25.0,19.4,30.16,SSE,168,1.0,6.0,79,0.00,,,0.00,meteohub,2013-01-06 08:59:00,
2013-01-06 04:04:00,25.0,19.4,30.15,SSE,168,0.0,6.0,79,0.00,,,0.00,meteohub,2013-01-06 09:04:00,
2013-01-06 04:09:00,25.0,19.8,30.15,SSE,168,1.0,4.0,80,0.00,,,0.00,meteohub,2013-01-06 09:09:00,
2013-01-06 04:14:00,24.8,19.6,30.14,SE,146,5.0,5.0,80,0.00,,,0.00,meteohub,2013-01-06 09:14:00,
2013-01-06 04:19:00,24.6,19.6,30.15,SSW,200,0.0,6.0,81,0.00,,,0.00,meteohub,2013-01-06 09:19:00,
2013-01-06 04:24:00,24.6,19.9,30.15,SSW,200,1.0,6.0,82,0.00,,,0.00,meteohub,2013-01-06 09:24:00,
2013-01-06 04:29:00,24.6,20.1,30.14,SE,138,0.0,7.0,83,0.00,,,0.00,meteohub,2013-01-06 09:29:00,
2013-01-06 04:34:00,24.4,20.3,30.14,SE,145,0.0,7.0,84,0.00,,,0.00,meteohub,2013-01-06 09:34:00,
2013-01-06 04:39:00,24.4,20.3,30.14,SE,145,1.0,4.0,84,0.00,,,0.00,meteohub,2013-01-06 09:39:00,
2013-01-06 04:44:00,24.4,20.8,30.14,SE,145,0.0,4.0,86,0.00,,,0.00,meteohub,2013-01-06 09:44:00,
2013-01-06 04:49:00,24.4,21.2,30.14,SE,145,1.0,3.0,87,0.00,,,0.00,meteohub,2013-01-06 09:49:00,
2013-01-06 04:54:00,24.4,21.2,30.13,SE,145,0.0,3.0,87,0.00,,,0.00,meteohub,2013-01-06 09:54:00,
2013-01-06 04:59:00,24.4,21.4,30.13,SE,145,0.0,3.0,88,0.00,,,0.00,meteohub,2013-01-06 09:59:00,
2013-01-06 05:04:00,24.4,21.4,30.13,SE,145,0.0,3.0,88,0.00,,,0.00,meteohub,2013-01-06 10:04:00,
2013-01-06 05:09:00,24.4,21.7,30.12,SE,145,0.0,3.0,89,0.00,,,0.00,meteohub,2013-01-06 10:09:00,
2013-01-06 05:15:00,24.4,21.7,30.13,SE,145,0.0,3.0,89,0.00,,,0.00,meteohub,2013-01-06 10:15:00,
2013-01-06 05:20:00,24.3,21.7,30.12,SE,145,0.0,1.0,90,0.00,,,0.00,meteohub,2013-01-06 10:20:00,
2013-01-06 05:25:00,24.3,21.7,30.12,SE,145,0.0,3.0,90,0.00,,,0.00,meteohub,2013-01-06 10:25:00,
2013-01-06 05:30:00,24.3,22.1,30.12,SE,145,0.0,3.0,91,0.00,,,0.00,meteohub,2013-01-06 10:30:00,
2013-01-06 05:35:00,24.3,22.1,30.12,SE,145,0.0,3.0,91,0.00,,,0.00,meteohub,2013-01-06 10:35:00,
2013-01-06 05:40:00,24.3,22.1,30.12,SE,145,0.0,3.0,91,0.00,,,0.00,meteohub,2013-01-06 10:40:00,
2013-01-06 05:45:00,24.1,22.1,30.12,SE,145,0.0,3.0,92,0.00,,,0.00,meteohub,2013-01-06 10:45:00,
2013-01-06 05:50:00,24.1,22.1,30.12,SE,145,0.0,3.0,92,0.00,,,0.00,meteohub,2013-01-06 10:50:00,
2013-01-06 05:55:00,24.3,22.5,30.12,WNW,301,0.0,4.0,93,0.00,,,0.00,meteohub,2013-01-06 10:55:00,
2013-01-06 06:00:00,25.0,23.2,30.12,WNW,288,1.0,4.0,93,0.00,,,0.00,meteohub,2013-01-06 11:00:00,
2013-01-06 06:05:00,25.5,23.5,30.12,WNW,287,1.0,5.0,92,0.00,,,0.00,meteohub,2013-01-06 11:05:00,
2013-01-06 06:10:00,26.1,23.7,30.12,WNW,300,4.0,8.0,91,0.00,,,0.00,meteohub,2013-01-06 11:10:00,
2013-01-06 06:15:00,26.2,23.7,30.12,NNW,327,1.0,8.0,90,0.00,,,0.00,meteohub,2013-01-06 11:15:00,
2013-01-06 06:20:00,26.6,24.1,30.12,West,272,2.0,8.0,90,0.00,,,0.00,meteohub,2013-01-06 11:20:00,
2013-01-06 06:25:00,26.8,24.3,30.12,West,262,2.0,8.0,90,0.00,,,0.00,meteohub,2013-01-06 11:25:00,
2013-01-06 06:30:00,26.8,24.3,30.12,West,271,1.0,8.0,90,0.00,,,0.00,meteohub,2013-01-06 11:30:00,
2013-01-06 06:35:00,27.0,24.1,30.12,WNW,283,1.0,6.0,89,0.00,,,0.00,meteohub,2013-01-06 11:35:00,
2013-01-06 06:40:00,26.6,23.2,30.12,WSW,257,5.0,12.0,87,0.00,,,0.00,meteohub,2013-01-06 11:40:00,
2013-01-06 06:45:00,26.6,23.2,30.12,SSW,204,7.0,12.0,87,0.00,,,0.00,meteohub,2013-01-06 11:45:00,
2013-01-06 06:50:00,26.8,23.4,30.12,WSW,240,7.0,12.0,87,0.00,,,0.00,meteohub,2013-01-06 11:50:00,
2013-01-06 06:55:00,27.0,23.4,30.12,West,263,8.0,13.0,86,0.00,,,0.00,meteohub,2013-01-06 11:55:00,
2013-01-06 07:00:00,27.1,23.5,30.12,WSW,250,10.0,13.0,86,0.00,,,0.00,meteohub,2013-01-06 12:00:00,
2013-01-06 07:05:00,27.1,23.5,30.12,West,263,9.0,14.0,86,0.00,,,0.00,meteohub,2013-01-06 12:05:00,
2013-01-06 07:10:00,27.1,23.2,30.12,WSW,247,9.0,20.0,85,0.00,,,0.00,meteohub,2013-01-06 12:10:00,
2013-01-06 07:15:00,27.1,23.5,30.12,SW,217,10.0,20.0,86,0.00,,,0.00,meteohub,2013-01-06 12:15:00,
2013-01-06 07:20:00,27.1,23.5,30.11,SW,226,7.0,16.0,86,0.00,,,0.00,meteohub,2013-01-06 12:20:00,
2013-01-06 07:25:00,27.1,23.5,30.11,WSW,242,13.0,19.0,86,0.00,,,0.00,meteohub,2013-01-06 12:25:00,
2013-01-06 07:30:00,27.1,23.5,30.11,West,267,9.0,19.0,86,0.00,,,0.00,meteohub,2013-01-06 12:30:00,
2013-01-06 07:35:00,27.1,23.5,30.11,WSW,246,5.0,19.0,86,0.00,,,0.00,meteohub,2013-01-06 12:35:00,
2013-01-06 07:40:00,27.1,23.5,30.11,WSW,241,8.0,16.0,86,0.00,,,0.00,meteohub,2013-01-06 12:40:00,
2013-01-06 07:45:00,27.1,23.5,30.10,WSW,248,5.0,16.0,86,0.00,,,0.00,meteohub,2013-01-06 12:45:00,
2013-01-06 07:50:00,27.1,23.5,30.10,WSW,250,6.0,17.0,86,0.00,,,0.00,meteohub,2013-01-06 12:50:00,
2013-01-06 07:55:00,27.1,23.5,30.09,West,271,4.0,17.0,86,0.00,,,0.00,meteohub,2013-01-06 12:55:00,
2013-01-06 08:00:00,27.1,23.5,30.10,West,261,6.0,15.0,86,0.00,,,0.00,meteohub,2013-01-06 13:00:00,
2013-01-06 08:05:00,27.1,23.5,30.10,WSW,258,9.0,12.0,86,0.00,,,0.00,meteohub,2013-01-06 13:05:00,
2013-01-06 08:10:00,27.3,23.4,30.10,WSW,250,6.0,11.0,85,0.00,,,0.00,meteohub,2013-01-06 13:10:00,
2013-01-06 08:16:00,27.3,23.4,30.10,SW,232,8.0,17.0,85,0.00,,,0.00,meteohub,2013-01-06 13:16:00,
2013-01-06 08:21:00,27.3,23.4,30.10,WSW,244,3.0,17.0,85,0.00,,,0.00,meteohub,2013-01-06 13:21:00,
2013-01-06 08:26:00,27.5,23.5,30.10,WSW,248,7.0,13.0,85,0.00,,,0.00,meteohub,2013-01-06 13:26:00,
2013-01-06 08:31:00,27.7,23.7,30.10,SW,225,11.0,14.0,85,0.00,,,0.00,meteohub,2013-01-06 13:31:00,
2013-01-06 08:36:00,27.7,23.7,30.10,WSW,257,8.0,14.0,85,0.00,,,0.00,meteohub,2013-01-06 13:36:00,
2013-01-06 08:41:00,27.7,23.5,30.10,WSW,251,7.0,13.0,84,0.00,,,0.00,meteohub,2013-01-06 13:41:00,
2013-01-06 08:46:00,27.7,23.7,30.10,WSW,250,11.0,15.0,85,0.00,,,0.00,meteohub,2013-01-06 13:46:00,
2013-01-06 08:51:00,27.9,23.7,30.11,WSW,238,9.0,19.0,84,0.00,,,0.00,meteohub,2013-01-06 13:51:00,
2013-01-06 08:56:00,27.9,23.7,30.11,WSW,246,4.0,19.0,84,0.00,,,0.00,meteohub,2013-01-06 13:56:00,
2013-01-06 09:01:00,27.9,23.7,30.11,WSW,248,6.0,19.0,84,0.00,,,0.00,meteohub,2013-01-06 14:01:00,
2013-01-06 09:06:00,27.9,23.7,30.11,SW,232,11.0,14.0,84,0.00,,,0.00,meteohub,2013-01-06 14:06:00,
2013-01-06 09:11:00,27.7,23.5,30.11,WSW,252,7.0,14.0,84,0.00,,,0.00,meteohub,2013-01-06 14:11:00,
2013-01-06 09:16:00,27.9,23.7,30.11,WSW,254,8.0,17.0,84,0.00,,,0.00,meteohub,2013-01-06 14:16:00,
2013-01-06 09:21:00,27.9,23.7,30.11,SW,229,10.0,17.0,84,0.00,,,0.00,meteohub,2013-01-06 14:21:00,
2013-01-06 09:26:00,27.7,23.5,30.10,SW,234,12.0,19.0,84,0.00,,,0.00,meteohub,2013-01-06 14:26:00,
2013-01-06 09:31:00,27.7,23.5,30.10,SW,236,12.0,19.0,84,0.00,,,0.00,meteohub,2013-01-06 14:31:00,
2013-01-06 09:36:00,27.7,23.5,30.10,WSW,243,11.0,19.0,84,0.00,,,0.00,meteohub,2013-01-06 14:36:00,
2013-01-06 09:41:00,27.7,23.5,30.10,WSW,240,11.0,20.0,84,0.00,,,0.00,meteohub,2013-01-06 14:41:00,
2013-01-06 09:46:00,27.7,23.5,30.10,WSW,250,15.0,20.0,84,0.00,,,0.00,meteohub,2013-01-06 14:46:00,
2013-01-06 09:51:00,27.7,23.5,30.10,SW,221,11.0,20.0,84,0.00,,,0.00,meteohub,2013-01-06 14:51:00,
2013-01-06 09:56:00,27.9,23.7,30.09,West,266,7.0,20.0,84,0.00,,,0.00,meteohub,2013-01-06 14:56:00,
2013-01-06 10:01:00,27.9,23.9,30.09,WSW,252,10.0,18.0,85,0.00,,,0.00,meteohub,2013-01-06 15:01:00,
2013-01-06 10:06:00,27.9,23.7,30.09,WSW,248,14.0,18.0,84,0.00,,,0.00,meteohub,2013-01-06 15:06:00,
2013-01-06 10:11:00,27.9,23.7,30.09,WSW,252,10.0,18.0,84,0.00,,,0.00,meteohub,2013-01-06 15:11:00,
2013-01-06 10:16:00,27.9,23.7,30.09,WSW,254,13.0,18.0,84,0.00,,,0.00,meteohub,2013-01-06 15:16:00,
2013-01-06 10:21:00,27.9,23.7,30.09,WSW,254,13.0,19.0,84,0.00,,,0.00,meteohub,2013-01-06 15:21:00,
2013-01-06 10:26:00,28.0,23.9,30.08,SW,226,9.0,19.0,84,0.00,,,0.00,meteohub,2013-01-06 15:26:00,
2013-01-06 10:31:00,28.0,24.1,30.09,WSW,253,12.0,19.0,85,0.00,,,0.00,meteohub,2013-01-06 15:31:00,
2013-01-06 10:36:00,28.0,23.9,30.08,West,268,10.0,20.0,84,0.00,,,0.00,meteohub,2013-01-06 15:36:00,
2013-01-06 10:41:00,28.2,24.1,30.08,WSW,257,11.0,20.0,84,0.00,,,0.00,meteohub,2013-01-06 15:41:00,
2013-01-06 10:46:00,28.2,24.1,30.08,SW,228,11.0,20.0,84,0.00,,,0.00,meteohub,2013-01-06 15:46:00,
2013-01-06 10:51:00,28.2,24.1,30.08,West,259,7.0,21.0,84,0.00,,,0.00,meteohub,2013-01-06 15:51:00,
2013-01-06 10:56:00,28.4,24.3,30.08,SW,230,8.0,21.0,84,0.00,,,0.00,meteohub,2013-01-06 15:56:00,
2013-01-06 11:01:00,28.4,24.3,30.08,WSW,253,13.0,21.0,84,0.00,,,0.00,meteohub,2013-01-06 16:01:00,
2013-01-06 11:06:00,28.6,24.4,30.08,WSW,255,6.0,19.0,84,0.00,,,0.00,meteohub,2013-01-06 16:06:00,
2013-01-06 11:11:00,28.6,24.4,30.07,West,267,4.0,19.0,84,0.00,,,0.00,meteohub,2013-01-06 16:11:00,
2013-01-06 11:16:00,28.6,24.4,30.07,WSW,256,10.0,19.0,84,0.00,,,0.00,meteohub,2013-01-06 16:16:00,
2013-01-06 11:21:00,28.6,24.4,30.07,West,273,7.0,18.0,84,0.00,,,0.00,meteohub,2013-01-06 16:21:00,
2013-01-06 11:26:00,28.6,24.4,30.06,SW,230,9.0,20.0,84,0.00,,,0.00,meteohub,2013-01-06 16:26:00,
2013-01-06 11:31:00,28.6,24.4,30.06,WSW,256,10.0,20.0,84,0.00,,,0.00,meteohub,2013-01-06 16:31:00,
2013-01-06 11:36:00,28.6,24.4,30.06,WSW,239,11.0,20.0,84,0.00,,,0.00,meteohub,2013-01-06 16:36:00,
2013-01-06 11:41:00,28.4,24.3,30.05,WSW,248,9.0,19.0,84,0.00,,,0.00,meteohub,2013-01-06 16:41:00,
2013-01-06 11:46:00,28.4,24.3,30.05,SW,221,11.0,18.0,84,0.00,,,0.00,meteohub,2013-01-06 16:46:00,
2013-01-06 11:51:00,28.4,24.3,30.05,WSW,248,10.0,20.0,84,0.00,,,0.00,meteohub,2013-01-06 16:51:00,
2013-01-06 11:56:00,28.4,24.3,30.05,West,266,10.0,20.0,84,0.00,,,0.00,meteohub,2013-01-06 16:56:00,
2013-01-06 12:01:00,28.4,24.3,30.05,SW,230,9.0,20.0,84,0.00,,,0.00,meteohub,2013-01-06 17:01:00,
2013-01-06 12:06:00,28.6,24.4,30.05,WSW,237,11.0,17.0,84,0.00,,,0.00,meteohub,2013-01-06 17:06:00,
2013-01-06 12:11:00,28.6,24.4,30.05,West,272,6.0,17.0,84,0.00,,,0.00,meteohub,2013-01-06 17:11:00,
2013-01-06 12:16:00,28.8,24.6,30.05,WSW,244,12.0,18.0,84,0.00,,,0.00,meteohub,2013-01-06 17:16:00,
2013-01-06 12:21:00,28.8,24.6,30.04,WSW,252,8.0,18.0,84,0.00,,,0.00,meteohub,2013-01-06 17:21:00,
2013-01-06 12:26:00,28.8,24.6,30.04,WSW,246,9.0,17.0,84,0.00,,,0.00,meteohub,2013-01-06 17:26:00,
2013-01-06 12:31:00,28.8,24.6,30.04,SW,233,19.0,19.0,84,0.00,,,0.00,meteohub,2013-01-06 17:31:00,
2013-01-06 12:37:00,28.9,24.8,30.04,WSW,240,11.0,19.0,84,0.00,,,0.00,meteohub,2013-01-06 17:37:00,
2013-01-06 12:42:00,28.9,24.8,30.04,WSW,248,13.0,19.0,84,0.00,,,0.00,meteohub,2013-01-06 17:42:00,
2013-01-06 12:47:00,29.1,25.0,30.04,WSW,246,8.0,19.0,84,0.00,,,0.00,meteohub,2013-01-06 17:47:00,
2013-01-06 12:52:00,29.1,25.0,30.04,SW,236,7.0,18.0,84,0.00,,,0.00,meteohub,2013-01-06 17:52:00,
2013-01-06 12:57:00,29.1,25.0,30.04,SW,223,9.0,19.0,84,0.00,,,0.00,meteohub,2013-01-06 17:57:00,
2013-01-06 13:02:00,29.5,25.5,30.04,WSW,251,8.0,19.0,85,0.00,,,0.00,meteohub,2013-01-06 18:02:00,
2013-01-06 13:07:00,29.5,25.2,30.04,SW,219,14.0,19.0,84,0.00,,,0.00,meteohub,2013-01-06 18:07:00,
2013-01-06 13:12:00,29.5,25.2,30.04,WSW,242,13.0,17.0,84,0.00,,,0.00,meteohub,2013-01-06 18:12:00,
2013-01-06 13:17:00,29.5,25.2,30.03,WSW,250,9.0,17.0,84,0.00,,,0.00,meteohub,2013-01-06 18:17:00,
2013-01-06 13:22:00,29.5,25.2,30.04,SW,232,11.0,19.0,84,0.00,,,0.00,meteohub,2013-01-06 18:22:00,
2013-01-06 13:27:00,29.5,25.2,30.04,SSW,211,7.0,19.0,84,0.00,,,0.00,meteohub,2013-01-06 18:27:00,
2013-01-06 13:32:00,29.7,25.3,30.03,WSW,248,11.0,19.0,84,0.00,,,0.00,meteohub,2013-01-06 18:32:00,
2013-01-06 13:37:00,29.7,25.3,30.03,West,265,5.0,16.0,84,0.00,,,0.00,meteohub,2013-01-06 18:37:00,
2013-01-06 13:42:00,29.7,25.3,30.04,WSW,237,9.0,18.0,84,0.00,,,0.00,meteohub,2013-01-06 18:42:00,
2013-01-06 13:47:00,29.7,25.3,30.04,WSW,243,10.0,18.0,84,0.00,,,0.00,meteohub,2013-01-06 18:47:00,
2013-01-06 13:52:00,29.7,25.7,30.04,West,259,7.0,16.0,85,0.00,,,0.00,meteohub,2013-01-06 18:52:00,
2013-01-06 13:57:00,29.7,25.7,30.04,WSW,252,3.0,14.0,85,0.00,,,0.00,meteohub,2013-01-06 18:57:00,
2013-01-06 14:02:00,29.7,25.7,30.03,WSW,240,8.0,13.0,85,0.00,,,0.00,meteohub,2013-01-06 19:02:00,
2013-01-06 14:07:00,29.7,25.3,30.03,SW,219,4.0,11.0,84,0.00,,,0.00,meteohub,2013-01-06 19:07:00,
2013-01-06 14:12:00,29.8,25.5,30.03,SW,234,5.0,10.0,84,0.00,,,0.00,meteohub,2013-01-06 19:12:00,
2013-01-06 14:17:00,30.2,25.9,30.03,WSW,240,4.0,10.0,84,0.00,,,0.00,meteohub,2013-01-06 19:17:00,
2013-01-06 14:22:00,30.4,25.9,30.02,WSW,241,6.0,10.0,83,0.00,,,0.00,meteohub,2013-01-06 19:22:00,
2013-01-06 14:27:00,30.0,25.5,30.02,WSW,246,8.0,11.0,83,0.00,,,0.00,meteohub,2013-01-06 19:27:00,
2013-01-06 14:32:00,30.0,25.5,30.02,WSW,242,6.0,11.0,83,0.00,,,0.00,meteohub,2013-01-06 19:32:00,
2013-01-06 14:37:00,30.2,25.7,30.02,WSW,253,7.0,11.0,83,0.00,,,0.00,meteohub,2013-01-06 19:37:00,
2013-01-06 14:42:00,30.4,26.1,30.02,WSW,238,6.0,11.0,84,0.00,,,0.00,meteohub,2013-01-06 19:42:00,
2013-01-06 14:47:00,30.4,25.9,30.01,SW,232,5.0,11.0,83,0.00,,,0.00,meteohub,2013-01-06 19:47:00,
2013-01-06 14:52:00,30.4,25.9,30.02,WSW,245,8.0,12.0,83,0.00,,,0.00,meteohub,2013-01-06 19:52:00,
2013-01-06 14:57:00,30.6,26.1,30.02,SW,233,6.0,12.0,83,0.00,,,0.00,meteohub,2013-01-06 19:57:00,
2013-01-06 15:02:00,30.9,26.4,30.02,WSW,252,5.0,12.0,83,0.00,,,0.00,meteohub,2013-01-06 20:02:00,
2013-01-06 15:07:00,30.7,26.2,30.02,WSW,239,7.0,12.0,83,0.00,,,0.00,meteohub,2013-01-06 20:07:00,
2013-01-06 15:11:00,30.7,26.2,30.02,SW,232,6.0,11.0,83,0.00,,,0.00,meteohub,2013-01-06 20:11:00,
2013-01-06 15:13:00,30.7,26.2,30.02,WSW,248,8.0,11.0,83,0.00,,,0.00,meteohub,2013-01-06 20:13:00,
2013-01-06 15:18:00,30.6,26.1,30.02,SW,236,10.0,11.0,83,0.00,,,0.00,meteohub,2013-01-06 20:18:00,
2013-01-06 15:23:00,30.7,26.2,30.02,SW,229,7.0,14.0,83,0.00,,,0.00,meteohub,2013-01-06 20:23:00,
2013-01-06 15:28:00,30.7,26.2,30.02,WSW,245,9.0,14.0,83,0.00,,,0.00,meteohub,2013-01-06 20:28:00,
2013-01-06 15:33:00,30.7,25.9,30.02,SW,227,6.0,14.0,82,0.00,,,0.00,meteohub,2013-01-06 20:33:00,
2013-01-06 15:38:00,30.7,26.2,30.02,WSW,243,4.0,13.0,83,0.00,,,0.00,meteohub,2013-01-06 20:38:00,
2013-01-06 15:43:00,30.7,25.9,30.02,SW,217,6.0,13.0,82,0.00,,,0.00,meteohub,2013-01-06 20:43:00,
2013-01-06 15:48:00,30.7,25.9,30.02,SW,215,3.0,12.0,82,0.00,,,0.00,meteohub,2013-01-06 20:48:00,
2013-01-06 15:53:00,30.7,26.2,30.02,WSW,244,7.0,10.0,83,0.00,,,0.00,meteohub,2013-01-06 20:53:00,
2013-01-06 15:58:00,30.7,26.2,30.02,West,259,4.0,10.0,83,0.00,,,0.00,meteohub,2013-01-06 20:58:00,
2013-01-06 16:00:00,30.7,26.2,30.02,WSW,242,5.0,10.0,83,0.00,,,0.00,meteohub,2013-01-06 21:00:00,
2013-01-06 16:05:00,30.7,25.9,30.02,WSW,248,7.0,13.0,82,0.00,,,0.00,meteohub,2013-01-06 21:05:00,
2013-01-06 16:10:00,30.7,26.2,30.03,West,259,4.0,13.0,83,0.00,,,0.00,meteohub,2013-01-06 21:10:00,
2013-01-06 16:15:00,30.9,26.4,30.03,West,270,10.0,11.0,83,0.00,,,0.00,meteohub,2013-01-06 21:15:00,
2013-01-06 16:20:00,30.9,26.4,30.03,WSW,244,7.0,14.0,83,0.00,,,0.00,meteohub,2013-01-06 21:20:00,
2013-01-06 16:25:00,30.7,26.8,30.03,WSW,251,5.0,14.0,85,0.00,,,0.00,meteohub,2013-01-06 21:25:00,
2013-01-06 16:30:00,30.6,27.0,30.03,West,270,5.0,14.0,86,0.00,,,0.00,meteohub,2013-01-06 21:30:00,
2013-01-06 16:35:00,30.2,26.8,30.03,West,269,5.0,14.0,87,0.00,,,0.00,meteohub,2013-01-06 21:35:00,
2013-01-06 16:40:00,30.2,26.8,30.03,West,277,6.0,14.0,87,0.00,,,0.00,meteohub,2013-01-06 21:40:00,
2013-01-06 16:45:00,30.4,27.0,30.03,West,259,7.0,11.0,87,0.00,,,0.00,meteohub,2013-01-06 21:45:00,
2013-01-06 16:50:00,30.4,27.0,30.04,WSW,255,7.0,12.0,87,0.00,,,0.00,meteohub,2013-01-06 21:50:00,
2013-01-06 16:55:00,30.4,27.0,30.03,West,272,7.0,12.0,87,0.00,,,0.00,meteohub,2013-01-06 21:55:00,
2013-01-06 17:00:00,30.4,27.0,30.04,WSW,252,7.0,12.0,87,0.00,,,0.00,meteohub,2013-01-06 22:00:00,
2013-01-06 17:05:00,30.2,27.1,30.03,WSW,242,6.0,12.0,88,0.00,,,0.00,meteohub,2013-01-06 22:05:00,
2013-01-06 17:10:00,30.0,27.1,30.03,WSW,246,7.0,13.0,89,0.00,,,0.00,meteohub,2013-01-06 22:10:00,
2013-01-06 17:15:00,29.8,27.0,30.04,West,264,5.0,13.0,89,0.00,,,0.00,meteohub,2013-01-06 22:15:00,
2013-01-06 17:20:00,29.8,27.3,30.03,WSW,258,4.0,13.0,90,0.00,,,0.00,meteohub,2013-01-06 22:20:00,
2013-01-06 17:25:00,29.8,27.3,30.04,WSW,238,8.0,11.0,90,0.00,,,0.00,meteohub,2013-01-06 22:25:00,
2013-01-06 17:30:00,29.8,27.5,30.03,WSW,254,6.0,13.0,91,0.00,,,0.00,meteohub,2013-01-06 22:30:00,
2013-01-06 17:35:00,29.8,27.5,30.04,WSW,255,6.0,13.0,91,0.00,,,0.00,meteohub,2013-01-06 22:35:00,
2013-01-06 17:40:00,29.8,27.5,30.04,West,261,6.0,14.0,91,0.00,,,0.00,meteohub,2013-01-06 22:40:00,
2013-01-06 17:45:00,29.8,27.5,30.04,West,278,8.0,14.0,91,0.00,,,0.00,meteohub,2013-01-06 22:45:00,
2013-01-06 17:51:00,29.7,27.7,30.04,WNW,284,5.0,14.0,92,0.00,,,0.00,meteohub,2013-01-06 22:51:00,
2013-01-06 17:56:00,29.7,27.7,30.04,West,273,5.0,14.0,92,0.00,,,0.00,meteohub,2013-01-06 22:56:00,
2013-01-06 18:01:00,29.7,27.7,30.04,West,274,5.0,11.0,92,0.00,,,0.00,meteohub,2013-01-06 23:01:00,
2013-01-06 18:06:00,29.7,27.9,30.05,SW,231,6.0,11.0,93,0.00,,,0.00,meteohub,2013-01-06 23:06:00,
2013-01-06 18:11:00,29.7,27.9,30.05,West,271,4.0,10.0,93,0.00,,,0.00,meteohub,2013-01-06 23:11:00,
2013-01-06 18:16:00,29.7,27.9,30.05,WSW,241,4.0,9.0,93,0.00,,,0.00,meteohub,2013-01-06 23:16:00,
2013-01-06 18:21:00,29.7,27.9,30.05,WSW,243,10.0,12.0,93,0.00,,,0.00,meteohub,2013-01-06 23:21:00,
2013-01-06 18:26:00,29.8,28.0,30.05,WSW,240,7.0,14.0,93,0.00,,,0.00,meteohub,2013-01-06 23:26:00,
2013-01-06 18:31:00,29.8,28.0,30.06,WSW,237,6.0,14.0,93,0.00,,,0.00,meteohub,2013-01-06 23:31:00,
2013-01-06 18:36:00,29.8,28.4,30.06,WSW,252,7.0,14.0,94,0.00,,,0.00,meteohub,2013-01-06 23:36:00,
2013-01-06 18:41:00,29.8,28.4,30.06,West,275,4.0,14.0,94,0.00,,,0.00,meteohub,2013-01-06 23:41:00,
2013-01-06 18:46:00,29.8,28.4,30.06,WSW,250,8.0,14.0,94,0.00,,,0.00,meteohub,2013-01-06 23:46:00,
2013-01-06 18:51:00,29.8,28.4,30.06,WSW,250,8.0,14.0,94,0.00,,,0.00,meteohub,2013-01-06 23:51:00,
2013-01-06 18:56:00,30.0,28.6,30.06,WSW,245,7.0,11.0,94,0.00,,,0.00,meteohub,2013-01-06 23:56:00,
2013-01-06 19:01:00,30.0,28.6,30.06,WSW,237,10.0,14.0,94,0.00,,,0.00,meteohub,2013-01-07 00:01:00,
2013-01-06 19:06:00,30.4,28.9,30.06,SW,236,6.0,14.0,94,0.00,,,0.00,meteohub,2013-01-07 00:06:00,
2013-01-06 19:11:00,30.4,28.6,30.05,WSW,248,3.0,15.0,93,0.00,,,0.00,meteohub,2013-01-07 00:11:00,
2013-01-06 19:16:00,30.4,28.6,30.05,SW,228,11.0,15.0,93,0.00,,,0.00,meteohub,2013-01-07 00:16:00,
2013-01-06 19:21:00,30.4,28.6,30.05,WSW,238,9.0,14.0,93,0.00,,,0.00,meteohub,2013-01-07 00:21:00,
2013-01-06 19:27:00,30.4,28.6,30.06,WSW,244,14.0,14.0,93,0.00,,,0.00,meteohub,2013-01-07 00:27:00,
2013-01-06 19:32:00,30.6,28.8,30.05,SW,234,6.0,16.0,93,0.00,,,0.00,meteohub,2013-01-07 00:32:00,
2013-01-06 19:37:00,30.6,28.8,30.05,SW,232,13.0,16.0,93,0.00,,,0.00,meteohub,2013-01-07 00:37:00,
2013-01-06 19:42:00,30.9,29.1,30.05,WSW,244,6.0,16.0,93,0.00,,,0.00,meteohub,2013-01-07 00:42:00,
2013-01-06 19:47:00,30.9,28.9,30.05,WSW,246,6.0,14.0,92,0.00,,,0.00,meteohub,2013-01-07 00:47:00,
2013-01-06 19:52:00,30.9,28.9,30.05,SW,236,4.0,14.0,92,0.00,,,0.00,meteohub,2013-01-07 00:52:00,
2013-01-06 19:57:00,30.9,28.9,30.05,SW,214,5.0,11.0,92,0.00,,,0.00,meteohub,2013-01-07 00:57:00,
2013-01-06 20:02:00,31.3,29.3,30.05,WSW,248,2.0,10.0,92,0.00,,,0.00,meteohub,2013-01-07 01:02:00,
2013-01-06 20:07:00,31.3,28.9,30.05,SW,229,4.0,9.0,91,0.00,,,0.00,meteohub,2013-01-07 01:07:00,
2013-01-06 20:12:00,31.5,29.1,30.05,SW,219,6.0,9.0,91,0.00,,,0.00,meteohub,2013-01-07 01:12:00,
2013-01-06 20:17:00,31.5,28.9,30.05,WSW,240,4.0,8.0,90,0.00,,,0.00,meteohub,2013-01-07 01:17:00,
2013-01-06 20:22:00,31.6,29.1,30.05,WSW,242,4.0,10.0,90,0.00,,,0.00,meteohub,2013-01-07 01:22:00,
2013-01-06 20:27:00,31.6,28.8,30.04,WSW,240,4.0,10.0,89,0.00,,,0.00,meteohub,2013-01-07 01:27:00,
2013-01-06 20:32:00,31.8,28.9,30.04,WSW,246,4.0,10.0,89,0.00,,,0.00,meteohub,2013-01-07 01:32:00,
2013-01-06 20:37:00,32.4,29.1,30.04,West,267,7.0,9.0,88,0.00,,,0.00,meteohub,2013-01-07 01:37:00,
2013-01-06 20:42:00,32.5,29.1,30.04,WSW,252,8.0,13.0,87,0.00,,,0.00,meteohub,2013-01-07 01:42:00,
2013-01-06 20:47:00,32.5,28.8,30.04,West,275,7.0,17.0,86,0.00,,,0.00,meteohub,2013-01-07 01:47:00,
2013-01-06 20:52:00,32.7,28.8,30.04,WNW,282,8.0,17.0,85,0.00,,,0.00,meteohub,2013-01-07 01:52:00,
2013-01-06 20:57:00,32.7,28.8,30.04,West,265,12.0,19.0,85,0.00,,,0.00,meteohub,2013-01-07 01:57:00,
2013-01-06 21:02:00,32.7,28.8,30.04,West,262,11.0,19.0,85,0.00,,,0.00,meteohub,2013-01-07 02:02:00,
2013-01-06 21:07:00,32.7,28.4,30.04,WSW,255,9.0,19.0,84,0.00,,,0.00,meteohub,2013-01-07 02:07:00,
2013-01-06 21:12:00,32.7,28.4,30.04,WSW,257,7.0,19.0,84,0.00,,,0.00,meteohub,2013-01-07 02:12:00,
2013-01-06 21:17:00,32.5,28.2,30.04,SW,220,21.0,21.0,84,0.00,,,0.00,meteohub,2013-01-07 02:17:00,
2013-01-06 21:22:00,33.1,29.3,30.04,West,281,7.0,28.0,86,0.00,,,0.00,meteohub,2013-01-07 02:22:00,
2013-01-06 21:27:00,33.1,29.3,30.04,NW,313,4.0,28.0,86,0.00,,,0.00,meteohub,2013-01-07 02:27:00,
2013-01-06 21:32:00,32.4,28.4,30.04,WSW,246,10.0,28.0,85,0.00,,,0.00,meteohub,2013-01-07 02:32:00,
2013-01-06 21:37:00,32.4,28.4,30.04,WSW,254,10.0,21.0,85,0.00,,,0.00,meteohub,2013-01-07 02:37:00,
2013-01-06 21:42:00,32.5,28.6,30.04,WSW,249,6.0,21.0,85,0.00,,,0.00,meteohub,2013-01-07 02:42:00,
2013-01-06 21:47:00,32.4,28.4,30.04,WSW,253,11.0,25.0,85,0.00,,,0.00,meteohub,2013-01-07 02:47:00,
2013-01-06 21:52:00,32.4,28.4,30.04,West,273,9.0,25.0,85,0.00,,,0.00,meteohub,2013-01-07 02:52:00,
2013-01-06 21:58:00,32.4,28.4,30.04,WSW,242,10.0,25.0,85,0.00,,,0.00,meteohub,2013-01-07 02:58:00,
2013-01-06 22:03:00,32.2,28.2,30.04,West,265,7.0,20.0,85,0.00,,,0.00,meteohub,2013-01-07 03:03:00,
2013-01-06 22:08:00,32.2,28.2,30.04,WSW,250,9.0,17.0,85,0.00,,,0.00,meteohub,2013-01-07 03:08:00,
2013-01-06 22:13:00,32.0,28.0,30.04,West,263,10.0,17.0,85,0.00,,,0.00,meteohub,2013-01-07 03:13:00,
2013-01-06 22:18:00,31.8,27.9,30.05,WSW,254,10.0,21.0,85,0.00,,,0.00,meteohub,2013-01-07 03:18:00,
2013-01-06 22:23:00,32.2,28.2,30.05,West,263,8.0,21.0,85,0.00,,,0.00,meteohub,2013-01-07 03:23:00,
2013-01-06 22:28:00,32.2,27.9,30.05,SW,219,7.0,21.0,84,0.00,,,0.00,meteohub,2013-01-07 03:28:00,
2013-01-06 22:33:00,32.2,28.2,30.05,West,259,7.0,18.0,85,0.00,,,0.00,meteohub,2013-01-07 03:33:00,
2013-01-06 22:38:00,32.2,27.9,30.05,WSW,251,13.0,18.0,84,0.00,,,0.00,meteohub,2013-01-07 03:38:00,
2013-01-06 22:43:00,32.2,27.9,30.05,West,263,4.0,16.0,84,0.00,,,0.00,meteohub,2013-01-07 03:43:00,
2013-01-06 22:48:00,32.2,27.9,30.05,WSW,253,9.0,16.0,84,0.00,,,0.00,meteohub,2013-01-07 03:48:00,
2013-01-06 22:53:00,31.8,27.9,30.05,WSW,250,9.0,16.0,85,0.00,,,0.00,meteohub,2013-01-07 03:53:00,
2013-01-06 22:58:00,31.8,27.9,30.05,West,266,6.0,12.0,85,0.00,,,0.00,meteohub,2013-01-07 03:58:00,
2013-01-06 23:03:00,31.8,27.9,30.05,WSW,244,9.0,13.0,85,0.00,,,0.00,meteohub,2013-01-07 04:03:00,
2013-01-06 23:08:00,32.0,27.7,30.05,WSW,257,6.0,13.0,84,0.00,,,0.00,meteohub,2013-01-07 04:08:00,
2013-01-06 23:13:00,32.2,27.7,30.05,West,279,8.0,14.0,83,0.00,,,0.00,meteohub,2013-01-07 04:13:00,
2013-01-06 23:18:00,32.4,27.9,30.05,WSW,248,10.0,14.0,83,0.00,,,0.00,meteohub,2013-01-07 04:18:00,
2013-01-06 23:23:00,32.2,27.7,30.05,WSW,250,3.0,13.0,83,0.00,,,0.00,meteohub,2013-01-07 04:23:00,
2013-01-06 23:28:00,32.0,27.7,30.05,SW,216,7.0,13.0,84,0.00,,,0.00,meteohub,2013-01-07 04:28:00,
2013-01-06 23:33:00,32.2,27.7,30.05,WNW,283,9.0,13.0,83,0.00,,,0.00,meteohub,2013-01-07 04:33:00,
2013-01-06 23:38:00,32.2,27.9,30.05,WSW,257,13.0,13.0,84,0.00,,,0.00,meteohub,2013-01-07 04:38:00,
2013-01-06 23:43:00,32.2,27.9,30.05,SW,236,9.0,13.0,84,0.00,,,0.00,meteohub,2013-01-07 04:43:00,
2013-01-06 23:48:00,32.0,27.7,30.05,WSW,242,5.0,15.0,84,0.00,,,0.00,meteohub,2013-01-07 04:48:00,
2013-01-06 23:53:00,32.0,27.7,30.05,WSW,254,5.0,15.0,84,0.00,,,0.00,meteohub,2013-01-07 04:53:00,
2013-01-06 23:58:00,32.0,28.0,30.06,WSW,242,3.0,13.0,85,0.00,,,0.00,meteohub,2013-01-07 04:58:00,